Theta_e
319 319 318 318 318 319 319 319 320 320 320 321 322 322 322 322 320 309 302 309 311 329 326 305 301 301 300 297 297 295 290 287 291 292 295 306 316 323 326 323 325 329 327 329 336
318 318 318 318 318 318 318 319 319 320 320 321 321 322 321 321 308 305 318 329 332 332 303 300 296 302 298 295 295 293 288 291 295 296 294 295 317 320 320 320 321 323 329 332 335
317 317 317 317 317 317 318 318 319 319 320 320 320 320 320 318 303 309 334 333 333 329 303 302 302 302 302 295 294 290 290 293 296 298 299 307 318 322 318 315 320 321 324 330 331
317 317 317 317 317 317 317 318 318 318 319 319 319 320 320 310 300 309 342 337 336 309 304 303 301 297 292 296 294 294 295 296 297 301 298 315 320 317 319 319 326 326 327 327 325
316 316 316 316 316 316 317 317 317 317 317 318 318 320 309 299 304 321 339 336 309 305 302 302 301 300 296 293 294 292 296 297 299 316 314 320 317 318 320 325 326 325 324 323 323
316 315 315 316 316 316 317 316 316 316 316 317 318 319 309 296 309 324 317 308 305 302 300 302 302 303 297 296 294 298 297 299 316 316 319 317 318 321 322 324 322 320 318 319 318
315 315 315 315 316 316 316 315 315 315 316 317 319 318 303 301 313 319 312 306 309 305 303 304 306 302 299 295 299 299 299 309 313 314 316 317 314 316 323 321 317 315 315 315 315
315 314 314 315 315 315 316 315 314 315 316 318 320 312 300 309 313 311 308 307 307 307 307 308 306 300 296 299 300 295 294 292 305 314 316 312 305 318 320 317 314 313 312 311 311
314 314 314 314 314 314 314 313 315 316 319 322 309 305 302 316 312 315 312 310 308 307 307 312 302 297 299 294 292 292 288 290 298 307 312 310 308 317 318 314 311 310 310 309 309
313 313 312 313 313 313 312 313 319 318 318 319 316 300 305 306 311 313 312 313 309 305 303 301 297 294 292 292 287 289 289 290 291 299 312 308 310 314 314 311 309 308 308 308 308
312 312 312 312 313 312 307 301 299 303 308 302 303 301 305 310 311 307 310 309 306 301 294 296 294 291 294 295 295 293 292 299 305 311 309 308 310 310 310 309 306 307 306 306 305
311 311 312 312 312 311 302 295 301 299 296 304 309 307 309 308 305 308 308 301 299 295 295 293 291 296 298 296 295 293 293 301 307 312 310 309 306 309 309 308 308 307 307 305 305
311 311 311 311 310 305 300 301 304 302 293 298 303 306 306 309 305 305 305 301 297 295 294 292 295 299 298 294 294 292 292 295 303 308 309 307 305 307 309 308 308 307 307 307 305
310 310 310 309 301 299 300 305 306 302 292 297 301 305 308 307 304 311 306 302 297 296 295 293 297 297 295 295 295 290 302 307 306 302 296 305 292 301 304 303 305 305 304 306 305
309 310 310 308 299 298 300 304 305 302 282 300 301 308 305 304 302 302 305 302 297 297 296 296 296 295 295 296 297 294 301 303 300 292 294 296 292 294 301 299 301 303 304 304 303
309 309 308 303 303 302 305 305 303 292 284 299 303 301 300 300 300 301 302 303 302 298 299 297 301 298 297 298 299 298 295 293 289 287 283 287 293 290 297 301 300 303 304 306 304
308 308 306 305 297 302 303 301 291 286 298 298 297 299 298 296 299 299 297 295 293 290 291 298 298 299 300 296 297 295 289 284 283 283 283 290 288 289 301 304 303 303 303 304 303
307 306 303 304 302 303 301 296 285 293 295 302 301 296 297 296 296 297 296 293 297 297 293 291 289 297 300 296 293 289 289 285 281 281 283 290 288 295 303 306 305 304 303 302 299
305 297 298 302 305 303 298 288 289 293 300 300 300 293 293 296 296 296 294 294 296 299 293 291 292 301 301 299 297 291 286 289 285 283 282 286 294 299 300 300 301 300 300 299 298
298 295 301 307 306 300 294 291 293 301 304 302 296 295 291 293 293 293 293 298 299 300 299 296 291 299 302 301 299 293 294 288 284 280 280 283 289 291 295 297 299 299 299 298 296
293 295 306 309 304 298 290 290 297 304 305 301 299 298 295 296 294 292 295 298 302 300 299 296 293 294 298 295 294 293 289 287 287 285 281 281 285 296 299 299 299 300 300 297 295
290 291 305 307 296 293 292 297 301 302 305 304 302 300 299 299 297 294 294 299 304 302 297 296 292 289 292 299 300 294 290 289 285 284 284 283 284 297 299 302 301 300 299 296 296
289 290 303 303 291 291 296 300 303 303 303 304 302 302 300 297 295 299 299 304 305 302 299 298 290 285 289 294 297 294 294 291 288 286 284 282 284 299 300 300 301 300 297 296 295
292 293 298 298 296 293 292 295 299 306 304 305 305 304 299 296 298 297 298 302 305 306 311 303 290 289 286 290 293 292 295 293 289 282 284 286 288 294 297 298 298 296 295 295 295
295 293 294 291 294 294 292 295 297 297 301 301 297 300 299 294 295 295 298 299 301 307 299 296 291 291 292 296 296 294 294 294 290 290 287 289 290 293 297 298 296 295 295 294 293
290 291 294 293 294 293 293 292 295 297 298 297 297 301 298 296 298 296 297 296 297 299 295 294 291 292 290 296 296 294 296 296 294 292 291 293 290 296 294 295 294 295 295 294 294
290 292 295 293 293 291 292 294 296 298 302 302 302 300 297 299 302 302 301 301 299 299 295 294 292 287 284 294 292 287 292 294 294 294 294 290 293 294 294 296 295 294 296 295 295
Wind_Speed
18 18 17 17 16 15 15 13 12 12 11 11 11 11 11 11 12 1 7 10 4 4 3 2 3 2 3 3 3 3 6 3 5 7 4 3 6 2 3 5 2 4 2 2 11
19 19 18 18 17 16 15 14 12 12 11 11 11 10 10 9 3 5 12 7 8 3 3 4 2 2 4 2 3 6 5 11 6 7 4 1 4 8 4 2 4 5 8 11 11
19 19 19 18 17 16 16 15 13 12 12 11 11 10 9 6 4 7 1 11 9 5 3 2 3 2 3 2 3 4 6 6 5 7 7 4 5 4 9 3 1 6 10 11 14
19 19 19 18 18 17 17 16 15 13 12 11 10 10 9 2 2 2 6 12 10 7 3 4 3 3 3 2 3 1 6 6 3 7 6 10 8 6 5 4 10 11 12 12 15
20 20 20 19 19 18 17 16 16 15 13 11 9 8 3 3 9 1 9 12 6 5 4 4 3 3 2 3 3 4 4 4 6 8 7 12 8 9 12 13 13 14 15 13 14
20 21 22 21 20 19 18 16 15 14 12 9 6 4 1 4 2 6 9 7 4 5 4 5 5 5 2 2 4 5 5 3 6 6 6 18 7 6 5 10 14 15 14 14 15
21 21 22 22 21 21 20 18 15 14 10 7 3 2 1 14 2 5 7 5 5 5 4 4 4 3 4 2 3 0 6 7 5 3 7 7 9 8 9 12 13 14 12 13 12
22 22 23 23 23 22 21 19 19 13 6 4 5 1 8 4 1 4 4 2 4 4 2 1 5 2 2 1 6 4 6 5 5 3 2 4 4 9 8 13 11 12 10 11 11
22 23 24 25 24 24 22 23 14 1 4 8 3 2 11 5 3 4 7 4 5 4 3 1 4 2 5 4 5 6 3 3 1 2 2 4 6 11 9 12 10 7 8 9 8
24 24 25 25 25 24 24 14 6 7 5 2 2 2 6 1 3 3 2 5 1 1 2 4 6 4 4 5 4 2 1 3 3 3 7 6 9 12 9 12 9 7 7 7 7
25 25 25 26 25 22 11 1 3 2 1 9 6 5 5 6 1 2 4 5 2 7 2 3 5 5 9 7 3 2 3 7 2 2 8 7 14 12 8 10 8 7 6 6 6
28 27 27 27 25 22 1 1 3 4 8 10 9 7 5 3 4 3 6 4 4 4 3 6 5 7 5 3 3 3 8 5 6 5 9 12 10 8 4 4 5 7 6 7 6
26 26 27 28 29 2 2 6 4 2 2 8 6 6 6 9 7 7 7 4 4 4 5 6 6 5 3 2 5 2 6 7 7 8 11 13 5 3 1 3 5 4 3 5 5
27 26 25 31 2 5 5 2 6 4 5 8 4 8 6 6 4 6 6 7 1 8 5 5 4 4 3 3 6 3 5 10 14 5 6 2 4 4 4 4 5 5 4 5 6
27 25 23 16 6 3 2 6 6 3 3 3 4 1 2 9 4 3 4 4 7 5 4 6 3 4 5 2 5 4 7 7 4 4 6 1 4 4 6 7 8 7 7 6 7
29 26 24 1 3 10 8 7 3 8 8 4 5 5 5 2 1 3 4 4 3 3 1 5 3 1 4 3 0 8 7 7 5 4 2 2 6 5 7 9 7 6 8 8 7
32 32 15 3 7 2 3 3 6 4 5 2 3 4 3 4 2 3 5 5 5 4 2 5 4 3 4 7 6 7 7 4 5 5 6 1 5 7 6 4 10 15 11 8 8
37 32 3 7 5 4 2 6 4 4 6 5 3 2 8 5 4 2 4 3 1 5 3 4 5 2 2 3 7 4 6 7 4 3 4 2 4 5 3 4 6 10 9 8 8
32 4 3 4 10 1 5 4 9 6 3 5 7 4 3 3 4 4 6 7 8 8 7 5 2 3 6 3 3 3 4 4 8 3 3 3 4 3 3 1 9 11 10 9 9
8 5 5 2 8 4 5 7 5 4 4 3 2 3 7 5 5 6 7 4 6 9 2 7 5 2 2 2 8 4 6 4 4 2 3 4 4 6 5 7 6 10 13 8 7
3 5 3 5 2 5 4 6 5 6 2 2 1 5 6 7 8 6 7 3 5 4 4 6 5 4 1 3 5 3 3 7 6 4 6 2 7 6 8 13 16 13 11 12 11
5 3 2 2 4 1 3 5 3 3 2 5 3 8 6 5 4 6 10 5 2 7 9 2 7 4 1 4 2 2 4 5 7 4 1 3 8 2 5 11 13 13 10 10 11
4 5 4 2 2 2 4 4 3 3 4 5 5 6 3 5 5 3 3 1 1 5 10 8 2 4 8 7 4 3 3 5 6 4 5 6 8 2 1 7 9 11 10 11 12
3 5 6 5 2 2 4 4 5 3 5 3 6 2 1 2 4 5 3 3 2 3 8 9 5 8 9 7 4 3 3 5 6 5 4 7 6 5 4 8 8 9 11 12 11
4 2 1 5 4 5 2 3 4 5 4 2 3 5 6 3 3 3 2 1 4 1 5 5 5 3 1 3 3 3 4 6 7 6 7 7 8 8 9 10 8 10 11 12 11
4 5 6 4 4 4 4 2 2 6 3 4 3 2 4 7 8 9 6 4 6 4 4 4 2 3 2 0 2 2 6 6 6 3 5 3 6 2 4 9 8 11 13 13 12
3 3 1 4 5 3 3 4 4 5 6 9 7 4 2 4 3 2 3 4 5 9 4 5 7 4 3 2 4 5 6 4 4 4 5 6 8 6 4 9 13 13 13 13 12
Wind_Direction
1 358 356 355 350 344 338 333 328 324 318 313 312 314 316 318 315 152 250 216 177 189 109 256 77 37 55 84 70 116 69 179 217 152 201 267 118 45 26 95 13 343 164 40 67
358 355 352 350 348 344 338 333 327 321 316 312 313 316 318 328 310 249 247 190 196 112 84 74 69 37 57 81 49 92 125 213 202 171 172 241 106 134 100 62 40 71 63 67 71
356 352 349 345 342 339 336 334 327 320 314 311 314 315 314 321 312 248 225 191 185 172 86 90 95 72 79 68 169 173 188 209 225 183 183 128 96 96 117 45 292 145 109 79 73
351 347 345 342 337 336 334 331 328 320 311 309 315 314 311 276 173 22 340 153 147 144 89 85 72 75 97 141 173 125 231 198 327 177 143 157 118 70 53 97 97 69 72 79 69
346 345 342 338 335 333 330 329 324 317 310 309 315 315 306 344 252 20 92 121 112 106 129 142 120 122 129 188 155 187 259 141 260 107 87 87 77 103 80 72 78 71 63 59 62
343 342 339 336 334 330 327 324 316 310 305 305 309 313 354 307 253 138 115 111 126 122 160 154 184 203 160 205 161 204 351 110 42 75 90 108 99 71 75 87 74 68 59 63 66
341 339 337 335 333 330 325 324 316 307 292 288 270 250 101 238 51 138 141 155 173 167 164 207 172 140 145 243 230 144 78 44 4 28 117 95 31 87 111 91 80 73 69 60 57
339 336 335 335 332 330 326 321 315 304 256 227 175 212 251 247 106 150 169 173 176 225 274 163 146 151 168 288 14 53 72 104 262 223 179 71 163 140 113 95 81 74 71 63 50
338 336 334 333 332 330 326 323 318 129 157 151 113 108 271 316 262 223 157 183 155 200 237 223 109 81 31 87 16 9 169 117 163 200 88 82 132 152 117 102 93 79 79 76 59
338 335 334 331 330 328 327 319 115 108 104 203 261 1 282 255 249 174 188 114 217 340 80 61 50 61 28 78 203 216 10 82 98 65 39 64 114 121 108 103 106 95 81 80 75
337 335 333 330 328 329 336 32 8 27 196 197 194 219 273 276 275 197 144 101 89 49 109 11 71 219 218 202 154 140 101 94 41 331 72 96 131 118 115 105 113 114 115 99 94
335 334 331 329 323 324 313 337 100 158 302 235 235 263 265 80 327 291 117 124 136 185 100 19 234 226 203 195 168 172 120 117 49 91 88 127 103 93 99 129 135 146 146 140 110
333 333 331 327 320 337 278 243 30 77 214 289 203 199 210 141 205 249 131 141 140 146 184 170 227 109 167 170 133 95 156 165 138 101 66 123 101 148 115 101 127 135 109 80 128
332 331 333 333 346 324 270 332 338 199 47 276 242 256 146 158 259 202 164 143 129 202 185 223 265 164 169 123 121 119 121 131 144 120 166 201 206 229 181 173 185 174 180 185 175
329 327 329 326 293 285 266 337 301 59 343 247 213 110 157 149 195 211 204 90 163 185 110 261 332 150 109 193 135 162 131 138 132 103 107 158 95 266 140 222 205 197 200 196 190
324 324 326 281 220 245 318 327 60 46 253 318 158 158 129 171 178 112 129 72 147 126 311 245 297 135 142 74 108 137 86 57 57 87 49 138 135 255 195 214 185 189 185 195 182
323 317 303 221 227 121 288 69 51 156 315 328 218 152 150 163 233 155 147 156 147 102 324 11 346 327 105 75 27 74 58 355 352 12 217 74 102 243 228 222 189 186 187 190 162
323 315 243 201 240 266 12 59 169 231 257 296 2 88 170 158 236 159 105 144 131 101 100 131 351 19 358 142 157 57 134 149 218 211 268 305 225 259 269 276 189 174 166 161 143
324 326 265 249 202 304 87 122 201 205 271 341 330 133 215 207 180 136 186 190 199 167 143 132 50 337 38 101 101 182 66 153 104 22 53 277 275 281 12 13 167 155 154 167 154
323 331 279 78 150 91 86 216 211 225 353 10 281 175 184 197 153 154 179 201 199 185 160 197 104 53 195 99 39 121 148 69 17 159 272 296 282 251 217 206 177 176 176 153 133
351 3 304 113 118 57 172 222 240 243 11 345 293 304 211 172 174 180 201 254 181 131 92 128 107 252 61 33 173 51 61 52 109 121 172 240 262 217 211 190 191 188 177 164 152
348 355 332 145 54 33 170 202 231 245 86 262 239 212 232 165 141 193 203 203 94 154 143 117 124 120 176 300 241 124 147 131 119 229 124 147 272 189 244 201 184 176 168 141 148
337 275 313 100 149 280 296 277 242 246 215 233 250 199 209 169 115 146 156 349 267 132 158 180 44 71 357 354 352 116 122 101 102 83 195 136 263 13 84 156 176 160 139 142 147
350 346 324 35 15 81 19 318 298 296 248 250 255 229 257 148 34 156 134 357 59 85 82 94 112 151 179 195 161 159 153 129 119 108 195 222 265 263 186 169 162 142 142 150 156
10 12 127 326 351 350 324 350 331 322 334 280 236 208 185 138 84 124 125 125 35 38 62 98 114 103 99 143 144 188 211 169 184 199 165 249 207 250 206 188 165 141 139 147 154
32 7 343 289 294 330 345 25 355 320 281 291 318 281 191 153 179 192 148 183 175 33 69 17 126 115 109 81 80 281 264 236 217 189 246 204 259 214 94 102 136 159 160 163 167
334 324 322 296 335 7 353 323 302 357 263 249 315 277 175 246 206 306 97 115 165 138 119 89 126 95 201 16 45 335 250 245 245 193 159 172 231 155 161 162 169 168 172 170 169